User: anonymous   Login
Location: Unspecified
(0.0000°N, 0.0000°E)
Time: 12:18:47
(UTC+00:00)
Language:

KKS-1 - Orbit

View from above orbital plane
View from above orbital plane
View from above satellite
View from above satellite

Ground track
Ground track

The orbit data is extracted from the following two-line orbital elements,

1 33499U 09002H   21016.17457835  .00000111  00000-0  24239-4 0  9996
2 33499  98.2893 242.5426 0009419 159.4721 200.6868 14.75607007644388
Epoch (UTC): 16 January 2021 04:11:23
Eccentricity: 0.0009419
inclination: 98.2893°
perigee height: 636 km
apogee height: 650 km
right ascension of ascending node: 242.5426°
argument of perigee: 159.4721°
revolutions per day: 14.75607007
mean anomaly at epoch: 200.6868°
orbit number at epoch: 64438

The dashed part of the orbit path shows where the satellite is in the earth's shadow,  

DLR